+ View the NASA Portal
+ Center for Near-Earth Object Studies
IMPORTANT:
The SSD Announcement email list is now available. Major changes are coming in the near future, including possible hostname and/or URL changes. To be notified of such changes, subscribe to this email list.
Please visit
this page
for more details.
Don't show this message again
JPL Small-Body Database Browser
Search:
[
help
]
441066 (2007 RA17)
Classification:
Inner Main-belt Asteroid
SPK-ID:
2441066
[
Ephemeris
|
Orbit Diagram
|
Orbital Elements
|
Mission Design
|
Physical Parameters
|
Discovery Circumstances
]
[ show orbit diagram ]
Orbital Elements at Epoch 2458600.5 (2019-Apr-27.0) TDB
Reference:
JPL 20
(heliocentric ecliptic J2000)
Element
Value
Uncertainty (1-sigma)
Units
e
.06702085096050296
7.0538e-08
a
1.934792248256219
2.4926e-08
au
q
1.805120825346303
1.4778e-07
au
i
18.56545043569495
1.3579e-05
deg
node
334.6102675699424
1.5689e-05
deg
peri
307.1952082945141
0.00011482
deg
M
183.0208163679122
0.00011046
deg
t
p
2459083.747506327422
(2020-Aug-22.24750633)
0.00030021
TDB
period
982.9918903882315
2.69
1.8996e-05
5.201e-08
d
yr
n
.3662288606041484
7.0773e-09
deg/d
Q
2.064463671166136
2.6597e-08
au
Orbit Determination Parameters
# obs. used (total)
195
data-arc span
4752 days (13.01 yr)
first obs. used
2006-01-24
last obs. used
2019-01-28
planetary ephem.
DE431
SB-pert. ephem.
SB431-N16
condition code
0
norm. resid. RMS
.60275
source
ORB
producer
Otto Matic
solution date
2019-Jul-14 12:59:06
Additional Information
Earth MOID
= .822483 au
Jupiter MOID
= 3.10011 au
T_jup
= 3.843
[ show covariance matrix ]
[
Ephemeris
|
Orbit Diagram
|
Orbital Elements
|
Mission Design
|
Physical Parameters
|
Discovery Circumstances
]
Physical Parameter Table
Parameter
Symbol
Value
Units
Sigma
Reference
Notes
absolute magnitude
H
17.8
n/a
MPO456090
441066 (2007 RA17)
Discovered 2006-Jan-24 by LONEOS at Anderson Mesa
Reference:
Last Updated:
2015-09-02
Alternate Designations
2007 RA17
= 2006 BZ149
[
Ephemeris
|
Orbit Diagram
|
Orbital Elements
|
Mission Design
|
Physical Parameters
|
Discovery Circumstances
]
2019-Dec-08 08:29 UT
(server date/time)
Site Manager:
Ryan S. Park
Webmaster
:
Alan B. Chamberlin